Time,TemperatureF,DewpointF,PressureIn,WindDirection,WindDirectionDegrees,WindSpeedMPH,WindSpeedGustMPH,Humidity,HourlyPrecipIn,Conditions,Clouds,dailyrainin,SolarRadiationWatts/m^2,SoftwareType,DateUTC
2013-11-17 00:04:00,33.8,29.2,28.01,SSW,210,0.0,0.0,83,0.00,,,0.00,0,WeatherTracker,2013-11-17 06:04:00,
2013-11-17 00:09:00,33.7,29.1,28.01,SSW,211,0.0,0.0,83,0.00,,,0.00,0,WeatherTracker,2013-11-17 06:09:00,
2013-11-17 00:14:00,33.6,29.0,28.00,SSW,211,0.0,0.0,83,0.00,,,0.00,0,WeatherTracker,2013-11-17 06:14:00,
2013-11-17 00:19:00,33.6,29.3,28.00,SSW,211,0.0,0.0,84,0.00,,,0.00,0,WeatherTracker,2013-11-17 06:19:00,
2013-11-17 00:24:00,33.5,29.2,28.00,SSW,211,0.0,0.0,84,0.00,,,0.00,0,WeatherTracker,2013-11-17 06:24:00,
2013-11-17 00:29:00,33.5,29.2,27.98,SSW,211,0.0,0.0,84,0.00,,,0.00,0,WeatherTracker,2013-11-17 06:29:00,
2013-11-17 00:34:00,33.5,29.2,27.98,SSW,210,0.0,0.0,84,0.00,,,0.00,0,WeatherTracker,2013-11-17 06:34:00,
2013-11-17 00:39:00,33.5,29.2,27.98,SSW,211,0.0,0.0,84,0.00,,,0.00,0,WeatherTracker,2013-11-17 06:39:00,
2013-11-17 00:45:00,33.4,29.4,27.99,SSW,211,0.0,0.0,85,0.00,,,0.00,0,WeatherTracker,2013-11-17 06:45:00,
2013-11-17 00:50:00,33.5,29.5,27.99,SSW,211,0.0,0.0,85,0.00,,,0.00,0,WeatherTracker,2013-11-17 06:50:00,
2013-11-17 00:55:00,33.5,29.5,27.99,SSW,211,0.0,0.0,85,0.00,,,0.00,0,WeatherTracker,2013-11-17 06:55:00,
2013-11-17 01:00:00,33.6,29.9,27.98,SSW,210,0.0,0.0,86,0.00,,,0.00,0,WeatherTracker,2013-11-17 07:00:00,
2013-11-17 01:05:00,33.9,30.2,27.98,SSW,211,0.0,0.0,86,0.00,,,0.00,0,WeatherTracker,2013-11-17 07:05:00,
2013-11-17 01:10:00,34.1,30.6,27.98,SSW,211,0.0,0.0,87,0.00,,,0.00,0,WeatherTracker,2013-11-17 07:10:00,
2013-11-17 01:15:00,34.4,30.9,27.98,SSW,210,0.0,0.0,87,0.00,,,0.00,0,WeatherTracker,2013-11-17 07:15:00,
2013-11-17 01:20:00,34.5,31.0,27.98,SSW,211,0.0,0.0,87,0.00,,,0.00,0,WeatherTracker,2013-11-17 07:20:00,
2013-11-17 01:25:00,34.6,31.1,27.98,SSW,211,0.0,0.0,87,0.00,,,0.00,0,WeatherTracker,2013-11-17 07:25:00,
2013-11-17 01:30:00,34.7,31.2,27.96,SSW,211,0.0,0.0,87,0.00,,,0.00,0,WeatherTracker,2013-11-17 07:30:00,
2013-11-17 01:35:00,34.8,31.3,27.96,SSW,211,0.0,0.0,87,0.00,,,0.00,0,WeatherTracker,2013-11-17 07:35:00,
2013-11-17 01:40:00,34.8,31.3,27.96,SSW,211,0.0,0.0,87,0.00,,,0.00,0,WeatherTracker,2013-11-17 07:40:00,
2013-11-17 01:45:00,35.0,31.5,27.95,SSW,211,0.0,0.0,87,0.00,,,0.00,0,WeatherTracker,2013-11-17 07:45:00,
2013-11-17 01:50:00,35.2,31.7,27.95,SSW,211,0.0,0.0,87,0.00,,,0.00,0,WeatherTracker,2013-11-17 07:50:00,
2013-11-17 01:55:00,35.2,31.7,27.95,SSW,210,0.0,0.0,87,0.00,,,0.00,0,WeatherTracker,2013-11-17 07:55:00,
2013-11-17 02:00:00,35.3,32.1,27.95,SSW,211,0.0,0.0,88,0.00,,,0.00,0,WeatherTracker,2013-11-17 08:00:00,
2013-11-17 02:05:00,35.5,32.3,27.95,SSW,210,0.0,0.0,88,0.00,,,0.00,0,WeatherTracker,2013-11-17 08:05:00,
2013-11-17 02:10:00,35.6,32.4,27.95,SSW,211,0.0,0.0,88,0.00,,,0.00,0,WeatherTracker,2013-11-17 08:10:00,
2013-11-17 02:15:00,35.7,32.5,27.95,SSW,210,0.0,0.0,88,0.00,,,0.00,0,WeatherTracker,2013-11-17 08:15:00,
2013-11-17 02:20:00,35.8,32.6,27.95,SSW,211,0.0,0.0,88,0.00,,,0.00,0,WeatherTracker,2013-11-17 08:20:00,
2013-11-17 02:25:00,35.9,32.7,27.95,SSW,210,0.0,0.0,88,0.00,,,0.00,0,WeatherTracker,2013-11-17 08:25:00,
2013-11-17 02:30:00,36.2,33.0,27.96,SSW,211,0.0,0.0,88,0.00,,,0.00,0,WeatherTracker,2013-11-17 08:30:00,
2013-11-17 02:35:00,36.6,33.4,27.96,SSW,210,0.0,0.0,88,0.00,,,0.00,0,WeatherTracker,2013-11-17 08:35:00,
2013-11-17 02:40:00,37.1,33.6,27.96,SSW,210,0.0,0.0,87,0.00,,,0.00,0,WeatherTracker,2013-11-17 08:40:00,
2013-11-17 02:45:00,37.6,33.8,27.96,SSW,211,0.0,0.0,86,0.00,,,0.00,0,WeatherTracker,2013-11-17 08:45:00,
2013-11-17 02:51:00,38.1,34.0,27.96,SW,227,0.0,0.0,85,0.00,,,0.00,0,WeatherTracker,2013-11-17 08:51:00,
2013-11-17 02:56:00,38.9,34.2,27.96,NW,326,5.0,0.0,83,0.00,,,0.00,0,WeatherTracker,2013-11-17 08:56:00,
2013-11-17 03:01:00,40.3,34.9,27.96,NW,319,4.0,0.0,81,0.00,,,0.00,0,WeatherTracker,2013-11-17 09:01:00,
2013-11-17 03:06:00,42.0,35.0,27.96,NNW,333,6.0,0.0,76,0.00,,,0.00,0,WeatherTracker,2013-11-17 09:06:00,
2013-11-17 03:11:00,43.5,35.1,27.96,NW,325,3.0,0.0,72,0.00,,,0.00,0,WeatherTracker,2013-11-17 09:11:00,
2013-11-17 03:16:00,44.7,34.8,27.97,WNW,291,7.0,0.0,68,0.00,,,0.00,0,WeatherTracker,2013-11-17 09:16:00,
2013-11-17 03:21:00,45.6,34.5,27.97,NNW,328,7.0,0.0,65,0.00,,,0.00,0,WeatherTracker,2013-11-17 09:21:00,
2013-11-17 03:26:00,46.4,34.5,27.97,NW,319,3.0,0.0,63,0.00,,,0.00,0,WeatherTracker,2013-11-17 09:26:00,
2013-11-17 03:31:00,47.0,34.3,27.95,NE,42,4.0,0.0,61,0.00,,,0.00,0,WeatherTracker,2013-11-17 09:31:00,
2013-11-17 03:36:00,47.6,34.4,27.95,NNW,334,3.0,0.0,60,0.00,,,0.00,0,WeatherTracker,2013-11-17 09:36:00,
2013-11-17 03:41:00,48.0,34.4,27.95,NNW,339,3.0,0.0,59,0.00,,,0.00,0,WeatherTracker,2013-11-17 09:41:00,
2013-11-17 03:46:00,48.3,34.2,27.94,North,355,1.0,0.0,58,0.00,,,0.00,0,WeatherTracker,2013-11-17 09:46:00,
2013-11-17 03:51:00,48.6,34.1,27.94,NNW,340,0.0,0.0,57,0.00,,,0.00,0,WeatherTracker,2013-11-17 09:51:00,
2013-11-17 03:56:00,49.0,34.0,27.94,North,351,7.0,0.0,56,0.00,,,0.00,0,WeatherTracker,2013-11-17 09:56:00,
2013-11-17 04:01:00,49.6,34.1,27.95,NW,314,4.0,0.0,55,0.00,,,0.00,0,WeatherTracker,2013-11-17 10:01:00,
2013-11-17 04:06:00,50.1,34.1,27.95,NNW,342,10.0,0.0,54,0.00,,,0.00,0,WeatherTracker,2013-11-17 10:06:00,
2013-11-17 04:11:00,50.5,34.5,27.95,NW,317,10.0,0.0,54,0.00,,,0.00,0,WeatherTracker,2013-11-17 10:11:00,
2013-11-17 04:16:00,50.5,34.5,27.96,NW,304,3.0,0.0,54,0.00,,,0.00,0,WeatherTracker,2013-11-17 10:16:00,
2013-11-17 04:21:00,50.4,33.9,27.96,WNW,300,4.0,0.0,53,0.00,,,0.00,0,WeatherTracker,2013-11-17 10:21:00,
2013-11-17 04:26:00,50.1,33.6,27.96,NW,320,4.0,0.0,53,0.00,,,0.00,0,WeatherTracker,2013-11-17 10:26:00,
2013-11-17 04:31:00,49.9,33.9,27.98,NW,313,4.0,0.0,54,0.00,,,0.00,0,WeatherTracker,2013-11-17 10:31:00,
2013-11-17 04:36:00,49.8,33.8,27.98,NW,321,6.0,0.0,54,0.00,,,0.00,0,WeatherTracker,2013-11-17 10:36:00,
2013-11-17 04:41:00,49.7,32.3,27.98,NW,316,4.0,0.0,51,0.00,,,0.00,0,WeatherTracker,2013-11-17 10:41:00,
2013-11-17 04:46:00,49.6,31.2,27.98,NNW,337,13.0,0.0,49,0.00,,,0.00,0,WeatherTracker,2013-11-17 10:46:00,
2013-11-17 04:51:00,49.7,31.3,27.98,NNE,28,6.0,0.0,49,0.00,,,0.00,0,WeatherTracker,2013-11-17 10:51:00,
2013-11-17 04:56:00,49.7,30.8,27.98,North,355,5.0,0.0,48,0.00,,,0.00,0,WeatherTracker,2013-11-17 10:56:00,
2013-11-17 05:01:00,49.8,30.9,27.99,North,360,7.0,0.0,48,0.00,,,0.00,0,WeatherTracker,2013-11-17 11:01:00,
2013-11-17 05:06:00,49.8,31.4,27.99,NW,321,0.0,0.0,49,0.00,,,0.00,0,WeatherTracker,2013-11-17 11:06:00,
2013-11-17 05:11:00,49.8,31.4,27.99,NW,324,5.0,0.0,49,0.00,,,0.00,0,WeatherTracker,2013-11-17 11:11:00,
2013-11-17 05:16:00,49.8,31.9,28.02,NNW,347,4.0,0.0,50,0.00,,,0.00,0,WeatherTracker,2013-11-17 11:16:00,
2013-11-17 05:22:00,49.8,31.9,28.02,NNW,340,5.0,0.0,50,0.00,,,0.00,0,WeatherTracker,2013-11-17 11:22:00,
2013-11-17 05:27:00,49.7,31.8,28.02,NW,323,3.0,0.0,50,0.00,,,0.00,0,WeatherTracker,2013-11-17 11:27:00,
2013-11-17 05:32:00,49.7,31.8,28.03,NW,321,2.0,0.0,50,0.00,,,0.00,0,WeatherTracker,2013-11-17 11:32:00,
2013-11-17 05:37:00,49.6,32.2,28.03,West,270,10.0,0.0,51,0.00,,,0.00,0,WeatherTracker,2013-11-17 11:37:00,
2013-11-17 05:42:00,49.3,32.4,28.03,West,268,5.0,0.0,52,0.00,,,0.00,0,WeatherTracker,2013-11-17 11:42:00,
2013-11-17 05:47:00,49.1,33.2,28.05,WNW,284,4.0,0.0,54,0.00,,,0.00,0,WeatherTracker,2013-11-17 11:47:00,
2013-11-17 05:52:00,48.8,33.4,28.05,NW,319,4.0,0.0,55,0.00,,,0.00,0,WeatherTracker,2013-11-17 11:52:00,
2013-11-17 05:57:00,48.5,34.4,28.05,NW,316,6.0,0.0,58,0.00,,,0.00,0,WeatherTracker,2013-11-17 11:57:00,
2013-11-17 06:02:00,48.4,35.2,28.07,WNW,296,0.0,0.0,60,0.00,,,0.00,0,WeatherTracker,2013-11-17 12:02:00,
2013-11-17 06:07:00,48.4,36.0,28.07,WNW,283,1.0,0.0,62,0.00,,,0.00,0,WeatherTracker,2013-11-17 12:07:00,
2013-11-17 06:12:00,48.4,36.4,28.07,West,272,3.0,0.0,63,0.00,,,0.00,0,WeatherTracker,2013-11-17 12:12:00,
2013-11-17 06:17:00,48.5,37.3,28.09,WNW,303,9.0,0.0,65,0.00,,,0.00,0,WeatherTracker,2013-11-17 12:17:00,
2013-11-17 06:22:00,48.5,37.7,28.09,WNW,289,5.0,0.0,66,0.00,,,0.00,0,WeatherTracker,2013-11-17 12:22:00,
2013-11-17 06:27:00,48.6,38.5,28.09,NNW,348,6.0,0.0,68,0.00,,,0.00,0,WeatherTracker,2013-11-17 12:27:00,
2013-11-17 06:32:00,48.6,38.5,28.10,NW,316,5.0,0.0,68,0.00,,,0.00,0,WeatherTracker,2013-11-17 12:32:00,
2013-11-17 06:37:00,48.7,39.0,28.10,WNW,289,4.0,0.0,69,0.00,,,0.00,0,WeatherTracker,2013-11-17 12:37:00,
2013-11-17 06:42:00,48.7,39.4,28.10,WNW,295,3.0,0.0,70,0.00,,,0.00,0,WeatherTracker,2013-11-17 12:42:00,
2013-11-17 06:48:00,48.7,39.4,28.09,NW,319,0.0,0.0,70,0.00,,,0.00,0,WeatherTracker,2013-11-17 12:48:00,
2013-11-17 06:53:00,48.7,39.4,28.09,WNW,296,1.0,0.0,70,0.00,,,0.00,0,WeatherTracker,2013-11-17 12:53:00,
2013-11-17 06:58:00,48.7,39.7,28.09,WNW,300,1.0,0.0,71,0.00,,,0.00,0,WeatherTracker,2013-11-17 12:58:00,
2013-11-17 07:03:00,48.7,39.7,28.07,WNW,300,0.0,0.0,71,0.00,,,0.00,0,WeatherTracker,2013-11-17 13:03:00,
2013-11-17 07:08:00,48.6,39.6,28.07,WNW,300,0.0,0.0,71,0.00,,,0.00,0,WeatherTracker,2013-11-17 13:08:00,
2013-11-17 07:13:00,48.5,39.9,28.07,WNW,299,0.0,0.0,72,0.00,,,0.00,0,WeatherTracker,2013-11-17 13:13:00,
2013-11-17 07:18:00,48.4,39.8,28.09,WNW,299,0.0,0.0,72,0.00,,,0.00,0,WeatherTracker,2013-11-17 13:18:00,
2013-11-17 07:23:00,48.3,39.3,28.09,WNW,299,0.0,0.0,71,0.00,,,0.00,0,WeatherTracker,2013-11-17 13:23:00,
2013-11-17 07:28:00,47.8,38.9,28.09,WNW,299,0.0,0.0,71,0.00,,,0.00,5,WeatherTracker,2013-11-17 13:28:00,
2013-11-17 07:33:00,47.0,38.4,28.12,WNW,298,2.0,0.0,72,0.00,,,0.00,9,WeatherTracker,2013-11-17 13:33:00,
2013-11-17 07:38:00,46.4,38.6,28.12,South,181,0.0,0.0,74,0.00,,,0.00,9,WeatherTracker,2013-11-17 13:38:00,
2013-11-17 07:43:00,46.1,38.3,28.12,South,180,0.0,0.0,74,0.00,,,0.00,9,WeatherTracker,2013-11-17 13:43:00,
2013-11-17 07:48:00,45.8,38.3,28.13,South,182,0.0,0.0,75,0.00,,,0.00,11,WeatherTracker,2013-11-17 13:48:00,
2013-11-17 07:53:00,45.5,38.7,28.13,South,182,0.0,0.0,77,0.00,,,0.00,14,WeatherTracker,2013-11-17 13:53:00,
2013-11-17 07:58:00,45.2,38.1,28.13,South,182,0.0,0.0,76,0.00,,,0.00,16,WeatherTracker,2013-11-17 13:58:00,
2013-11-17 08:03:00,44.9,37.8,28.13,South,182,0.0,0.0,76,0.00,,,0.00,18,WeatherTracker,2013-11-17 14:03:00,
2013-11-17 08:08:00,44.6,37.2,28.13,South,182,0.0,0.0,75,0.00,,,0.00,19,WeatherTracker,2013-11-17 14:08:00,
2013-11-17 08:13:00,44.1,37.0,28.13,South,182,0.0,0.0,76,0.00,,,0.00,28,WeatherTracker,2013-11-17 14:13:00,
2013-11-17 08:18:00,43.7,37.3,28.15,South,182,0.0,0.0,78,0.00,,,0.00,49,WeatherTracker,2013-11-17 14:18:00,
2013-11-17 08:23:00,43.6,37.2,28.15,South,182,0.0,0.0,78,0.00,,,0.00,53,WeatherTracker,2013-11-17 14:23:00,
2013-11-17 08:28:00,43.5,37.4,28.16,South,182,0.0,0.0,79,0.00,,,0.00,83,WeatherTracker,2013-11-17 14:28:00,
2013-11-17 08:33:00,43.5,37.7,28.16,South,182,0.0,0.0,80,0.00,,,0.00,95,WeatherTracker,2013-11-17 14:33:00,
2013-11-17 08:38:00,43.5,38.1,28.16,South,182,0.0,0.0,81,0.00,,,0.00,46,WeatherTracker,2013-11-17 14:38:00,
2013-11-17 08:43:00,43.8,38.7,28.16,South,182,0.0,0.0,82,0.00,,,0.00,132,WeatherTracker,2013-11-17 14:43:00,
2013-11-17 08:48:00,44.1,39.3,28.16,South,182,0.0,0.0,83,0.00,,,0.00,192,WeatherTracker,2013-11-17 14:48:00,
2013-11-17 08:53:00,44.6,39.8,28.16,South,182,0.0,0.0,83,0.00,,,0.00,213,WeatherTracker,2013-11-17 14:53:00,
2013-11-17 08:59:00,45.1,40.3,28.17,South,182,0.0,0.0,83,0.00,,,0.00,223,WeatherTracker,2013-11-17 14:59:00,
2013-11-17 09:04:00,45.9,41.0,28.17,South,186,1.0,0.0,83,0.00,,,0.00,234,WeatherTracker,2013-11-17 15:04:00,
2013-11-17 09:09:00,46.8,41.3,28.17,SSW,194,0.0,0.0,81,0.00,,,0.00,244,WeatherTracker,2013-11-17 15:09:00,
2013-11-17 09:14:00,47.6,41.7,28.18,SSW,197,0.0,0.0,80,0.00,,,0.00,265,WeatherTracker,2013-11-17 15:14:00,
2013-11-17 09:19:00,48.4,42.2,28.18,SSW,211,3.0,0.0,79,0.00,,,0.00,221,WeatherTracker,2013-11-17 15:19:00,
2013-11-17 09:24:00,49.2,42.3,28.18,SW,224,0.0,0.0,77,0.00,,,0.00,237,WeatherTracker,2013-11-17 15:24:00,
2013-11-17 09:29:00,49.9,42.3,28.18,SSW,211,3.0,0.0,75,0.00,,,0.00,216,WeatherTracker,2013-11-17 15:29:00,
2013-11-17 09:34:00,50.5,42.2,28.18,WSW,250,7.0,0.0,73,0.00,,,0.00,308,WeatherTracker,2013-11-17 15:34:00,
2013-11-17 09:39:00,51.4,41.2,28.18,WSW,244,6.0,0.0,68,0.00,,,0.00,322,WeatherTracker,2013-11-17 15:39:00,
2013-11-17 09:44:00,52.0,41.0,28.19,West,279,11.0,0.0,66,0.00,,,0.00,332,WeatherTracker,2013-11-17 15:44:00,
2013-11-17 09:49:00,52.4,40.6,28.19,SSW,207,8.0,0.0,64,0.00,,,0.00,343,WeatherTracker,2013-11-17 15:49:00,
2013-11-17 09:54:00,52.8,40.1,28.19,SW,235,6.0,0.0,62,0.00,,,0.00,355,WeatherTracker,2013-11-17 15:54:00,
2013-11-17 09:59:00,53.1,38.7,28.17,WSW,246,7.0,0.0,58,0.00,,,0.00,367,WeatherTracker,2013-11-17 15:59:00,
2013-11-17 10:04:00,53.4,39.0,28.17,WSW,249,11.0,0.0,58,0.00,,,0.00,376,WeatherTracker,2013-11-17 16:04:00,
2013-11-17 10:09:00,53.8,38.5,28.17,WSW,250,12.0,0.0,56,0.00,,,0.00,385,WeatherTracker,2013-11-17 16:09:00,
2013-11-17 10:14:00,54.0,38.2,28.18,West,279,8.0,0.0,55,0.00,,,0.00,396,WeatherTracker,2013-11-17 16:14:00,
2013-11-17 10:19:00,54.1,37.8,28.18,WSW,247,11.0,0.0,54,0.00,,,0.00,404,WeatherTracker,2013-11-17 16:19:00,
2013-11-17 10:24:00,54.0,37.3,28.18,WSW,248,8.0,0.0,53,0.00,,,0.00,413,WeatherTracker,2013-11-17 16:24:00,
2013-11-17 10:30:00,54.1,37.4,28.20,WSW,256,5.0,0.0,53,0.00,,,0.00,422,WeatherTracker,2013-11-17 16:30:00,
2013-11-17 10:35:00,54.3,37.1,28.20,WSW,251,14.0,0.0,52,0.00,,,0.00,431,WeatherTracker,2013-11-17 16:35:00,
2013-11-17 10:40:00,54.5,36.7,28.20,West,269,13.0,0.0,51,0.00,,,0.00,438,WeatherTracker,2013-11-17 16:40:00,
2013-11-17 10:45:00,54.8,36.5,28.21,West,259,10.0,0.0,50,0.00,,,0.00,443,WeatherTracker,2013-11-17 16:45:00,
2013-11-17 10:50:00,55.2,35.9,28.21,WSW,250,6.0,0.0,48,0.00,,,0.00,450,WeatherTracker,2013-11-17 16:50:00,
2013-11-17 10:55:00,55.3,35.4,28.21,WNW,284,14.0,0.0,47,0.00,,,0.00,457,WeatherTracker,2013-11-17 16:55:00,
2013-11-17 11:00:00,55.1,35.2,28.21,WNW,284,16.0,0.0,47,0.00,,,0.00,466,WeatherTracker,2013-11-17 17:00:00,
2013-11-17 11:05:00,55.2,35.9,28.21,West,276,13.0,0.0,48,0.00,,,0.00,471,WeatherTracker,2013-11-17 17:05:00,
2013-11-17 11:10:00,55.1,35.8,28.21,WSW,252,6.0,0.0,48,0.00,,,0.00,475,WeatherTracker,2013-11-17 17:10:00,
2013-11-17 11:15:00,55.1,36.3,28.22,NW,312,7.0,0.0,49,0.00,,,0.00,480,WeatherTracker,2013-11-17 17:15:00,
2013-11-17 11:20:00,55.2,36.4,28.22,West,266,10.0,0.0,49,0.00,,,0.00,483,WeatherTracker,2013-11-17 17:20:00,
2013-11-17 11:25:00,55.3,36.5,28.22,NW,306,12.0,0.0,49,0.00,,,0.00,490,WeatherTracker,2013-11-17 17:25:00,
2013-11-17 11:30:00,55.4,36.6,28.23,West,263,22.0,0.0,49,0.00,,,0.00,497,WeatherTracker,2013-11-17 17:30:00,
2013-11-17 11:35:00,55.1,36.3,28.23,West,275,13.0,0.0,49,0.00,,,0.00,306,WeatherTracker,2013-11-17 17:35:00,
2013-11-17 11:40:00,55.2,35.9,28.23,West,277,9.0,0.0,48,0.00,,,0.00,554,WeatherTracker,2013-11-17 17:40:00,
2013-11-17 11:45:00,55.1,35.8,28.24,West,275,9.0,0.0,48,0.00,,,0.00,281,WeatherTracker,2013-11-17 17:45:00,
2013-11-17 11:50:00,55.1,35.8,28.24,NW,310,11.0,0.0,48,0.00,,,0.00,265,WeatherTracker,2013-11-17 17:50:00,
2013-11-17 11:55:00,55.1,35.8,28.24,WNW,291,10.0,0.0,48,0.00,,,0.00,353,WeatherTracker,2013-11-17 17:55:00,
2013-11-17 12:00:00,55.4,36.0,28.25,WNW,296,10.0,0.0,48,0.00,,,0.00,234,WeatherTracker,2013-11-17 18:00:00,
2013-11-17 12:05:00,55.4,36.0,28.25,WNW,286,6.0,0.0,48,0.00,,,0.00,223,WeatherTracker,2013-11-17 18:05:00,
2013-11-17 12:10:00,55.4,36.0,28.25,WNW,288,4.0,0.0,48,0.00,,,0.00,257,WeatherTracker,2013-11-17 18:10:00,
2013-11-17 12:16:00,55.3,35.9,28.27,NW,318,15.0,0.0,48,0.00,,,0.00,292,WeatherTracker,2013-11-17 18:16:00,
2013-11-17 12:21:00,55.4,36.6,28.27,West,267,11.0,0.0,49,0.00,,,0.00,629,WeatherTracker,2013-11-17 18:21:00,
2013-11-17 12:26:00,56.0,36.1,28.27,West,261,17.0,0.0,47,0.00,,,0.00,422,WeatherTracker,2013-11-17 18:26:00,
2013-11-17 12:31:00,56.2,35.7,28.27,NW,321,11.0,0.0,46,0.00,,,0.00,483,WeatherTracker,2013-11-17 18:31:00,
2013-11-17 12:36:00,55.8,34.8,28.27,WNW,288,25.0,0.0,45,0.00,,,0.00,385,WeatherTracker,2013-11-17 18:36:00,
2013-11-17 12:41:00,55.2,34.2,28.27,West,279,12.0,0.0,45,0.00,,,0.00,455,WeatherTracker,2013-11-17 18:41:00,
2013-11-17 12:46:00,55.3,34.9,28.28,NW,313,10.0,0.0,46,0.00,,,0.00,538,WeatherTracker,2013-11-17 18:46:00,
2013-11-17 12:51:00,55.4,34.4,28.28,West,281,21.0,0.0,45,0.00,,,0.00,403,WeatherTracker,2013-11-17 18:51:00,
2013-11-17 12:56:00,55.0,34.6,28.28,WNW,294,17.0,0.0,46,0.00,,,0.00,434,WeatherTracker,2013-11-17 18:56:00,
2013-11-17 13:01:00,54.8,33.9,28.29,North,355,7.0,0.0,45,0.00,,,0.00,364,WeatherTracker,2013-11-17 19:01:00,
2013-11-17 13:06:00,54.5,34.1,28.29,NW,304,13.0,0.0,46,0.00,,,0.00,443,WeatherTracker,2013-11-17 19:06:00,
2013-11-17 13:11:00,54.4,34.6,28.29,NW,322,7.0,0.0,47,0.00,,,0.00,499,WeatherTracker,2013-11-17 19:11:00,
2013-11-17 13:16:00,54.7,34.9,28.31,WNW,296,9.0,0.0,47,0.00,,,0.00,490,WeatherTracker,2013-11-17 19:16:00,
2013-11-17 13:21:00,55.0,34.6,28.31,West,275,16.0,0.0,46,0.00,,,0.00,485,WeatherTracker,2013-11-17 19:21:00,
2013-11-17 13:26:00,55.2,34.2,28.31,NW,306,5.0,0.0,45,0.00,,,0.00,480,WeatherTracker,2013-11-17 19:26:00,
2013-11-17 13:31:00,55.6,34.6,28.31,NW,315,7.0,0.0,45,0.00,,,0.00,475,WeatherTracker,2013-11-17 19:31:00,
2013-11-17 13:36:00,56.0,35.0,28.31,NNW,335,10.0,0.0,45,0.00,,,0.00,468,WeatherTracker,2013-11-17 19:36:00,
2013-11-17 13:41:00,56.3,34.7,28.31,NW,310,6.0,0.0,44,0.00,,,0.00,461,WeatherTracker,2013-11-17 19:41:00,
2013-11-17 13:46:00,56.5,34.3,28.33,WNW,296,7.0,0.0,43,0.00,,,0.00,455,WeatherTracker,2013-11-17 19:46:00,
2013-11-17 13:51:00,56.6,34.4,28.33,WNW,300,12.0,0.0,43,0.00,,,0.00,445,WeatherTracker,2013-11-17 19:51:00,
2013-11-17 13:56:00,56.8,34.5,28.33,NNW,342,12.0,0.0,43,0.00,,,0.00,439,WeatherTracker,2013-11-17 19:56:00,
2013-11-17 14:01:00,57.2,34.3,28.33,WNW,298,9.0,0.0,42,0.00,,,0.00,432,WeatherTracker,2013-11-17 20:01:00,
2013-11-17 14:07:00,57.2,34.9,28.33,NNW,327,9.0,0.0,43,0.00,,,0.00,422,WeatherTracker,2013-11-17 20:07:00,
2013-11-17 14:12:00,57.0,34.7,28.33,NNW,327,7.0,0.0,43,0.00,,,0.00,415,WeatherTracker,2013-11-17 20:12:00,
2013-11-17 14:17:00,56.9,35.2,28.34,NW,315,12.0,0.0,44,0.00,,,0.00,404,WeatherTracker,2013-11-17 20:17:00,
2013-11-17 14:22:00,56.9,35.2,28.34,NW,318,11.0,0.0,44,0.00,,,0.00,396,WeatherTracker,2013-11-17 20:22:00,
2013-11-17 14:27:00,56.8,35.1,28.34,WNW,288,6.0,0.0,44,0.00,,,0.00,385,WeatherTracker,2013-11-17 20:27:00,
2013-11-17 14:32:00,56.9,35.8,28.35,WNW,290,9.0,0.0,45,0.00,,,0.00,378,WeatherTracker,2013-11-17 20:32:00,
2013-11-17 14:37:00,56.9,36.3,28.35,NW,309,11.0,0.0,46,0.00,,,0.00,364,WeatherTracker,2013-11-17 20:37:00,
2013-11-17 14:42:00,56.6,37.7,28.35,NW,323,9.0,0.0,49,0.00,,,0.00,353,WeatherTracker,2013-11-17 20:42:00,
2013-11-17 14:47:00,56.5,38.6,28.37,NW,308,9.0,0.0,51,0.00,,,0.00,346,WeatherTracker,2013-11-17 20:47:00,
2013-11-17 14:52:00,56.6,38.7,28.37,WNW,285,11.0,0.0,51,0.00,,,0.00,387,WeatherTracker,2013-11-17 20:52:00,
2013-11-17 14:57:00,56.7,38.8,28.37,NNW,340,9.0,0.0,51,0.00,,,0.00,380,WeatherTracker,2013-11-17 20:57:00,
2013-11-17 15:02:00,56.8,38.4,28.38,NNW,341,10.0,0.0,50,0.00,,,0.00,315,WeatherTracker,2013-11-17 21:02:00,
2013-11-17 15:07:00,56.5,38.6,28.38,NNW,344,5.0,0.0,51,0.00,,,0.00,292,WeatherTracker,2013-11-17 21:07:00,
2013-11-17 15:12:00,56.2,38.3,28.38,NW,321,5.0,0.0,51,0.00,,,0.00,281,WeatherTracker,2013-11-17 21:12:00,
2013-11-17 15:17:00,56.0,38.6,28.39,NNW,343,12.0,0.0,52,0.00,,,0.00,272,WeatherTracker,2013-11-17 21:17:00,
2013-11-17 15:22:00,55.8,38.4,28.39,NW,309,9.0,0.0,52,0.00,,,0.00,258,WeatherTracker,2013-11-17 21:22:00,
2013-11-17 15:27:00,55.7,38.3,28.39,NW,309,4.0,0.0,52,0.00,,,0.00,246,WeatherTracker,2013-11-17 21:27:00,
2013-11-17 15:33:00,55.7,38.3,28.39,NNW,342,5.0,0.0,52,0.00,,,0.00,232,WeatherTracker,2013-11-17 21:33:00,
2013-11-17 15:38:00,55.7,37.9,28.39,North,10,11.0,0.0,51,0.00,,,0.00,218,WeatherTracker,2013-11-17 21:38:00,
2013-11-17 15:43:00,55.6,37.3,28.39,North,355,6.0,0.0,50,0.00,,,0.00,204,WeatherTracker,2013-11-17 21:43:00,
2013-11-17 15:48:00,55.5,37.2,28.41,North,355,5.0,0.0,50,0.00,,,0.00,192,WeatherTracker,2013-11-17 21:48:00,
2013-11-17 15:53:00,55.3,37.0,28.41,NNW,337,6.0,0.0,50,0.00,,,0.00,178,WeatherTracker,2013-11-17 21:53:00,
2013-11-17 15:58:00,55.1,36.8,28.41,North,355,5.0,0.0,50,0.00,,,0.00,167,WeatherTracker,2013-11-17 21:58:00,
2013-11-17 16:03:00,55.1,37.3,28.43,NNW,345,11.0,0.0,51,0.00,,,0.00,155,WeatherTracker,2013-11-17 22:03:00,
2013-11-17 16:08:00,54.9,37.1,28.43,North,11,7.0,0.0,51,0.00,,,0.00,142,WeatherTracker,2013-11-17 22:08:00,
2013-11-17 16:13:00,54.8,37.5,28.43,North,349,4.0,0.0,52,0.00,,,0.00,132,WeatherTracker,2013-11-17 22:13:00,
2013-11-17 16:18:00,54.7,37.4,28.44,NNE,27,9.0,0.0,52,0.00,,,0.00,116,WeatherTracker,2013-11-17 22:18:00,
2013-11-17 16:23:00,54.5,37.7,28.44,NNE,13,2.0,0.0,53,0.00,,,0.00,102,WeatherTracker,2013-11-17 22:23:00,
2013-11-17 16:28:00,54.4,37.1,28.44,NNE,18,6.0,0.0,52,0.00,,,0.00,88,WeatherTracker,2013-11-17 22:28:00,
2013-11-17 16:33:00,54.2,37.4,28.45,North,355,5.0,0.0,53,0.00,,,0.00,74,WeatherTracker,2013-11-17 22:33:00,
2013-11-17 16:38:00,54.0,37.3,28.45,NNW,345,1.0,0.0,53,0.00,,,0.00,58,WeatherTracker,2013-11-17 22:38:00,
2013-11-17 16:43:00,53.9,37.2,28.45,NW,307,4.0,0.0,53,0.00,,,0.00,39,WeatherTracker,2013-11-17 22:43:00,
2013-11-17 16:48:00,53.6,37.4,28.47,NW,311,1.0,0.0,54,0.00,,,0.00,12,WeatherTracker,2013-11-17 22:48:00,
2013-11-17 16:53:00,53.3,37.1,28.47,NW,310,0.0,0.0,54,0.00,,,0.00,23,WeatherTracker,2013-11-17 22:53:00,
2013-11-17 16:58:00,52.9,37.2,28.47,NNW,337,0.0,0.0,55,0.00,,,0.00,12,WeatherTracker,2013-11-17 22:58:00,
2013-11-17 17:03:00,52.5,36.8,28.48,NNW,337,0.0,0.0,55,0.00,,,0.00,7,WeatherTracker,2013-11-17 23:03:00,
2013-11-17 17:08:00,52.2,36.5,28.48,NNW,337,0.0,0.0,55,0.00,,,0.00,0,WeatherTracker,2013-11-17 23:08:00,
2013-11-17 17:13:00,51.8,36.6,28.50,NNW,337,0.0,0.0,56,0.00,,,0.00,0,WeatherTracker,2013-11-17 23:13:00,
2013-11-17 17:19:00,51.5,36.3,28.50,NNW,337,0.0,0.0,56,0.00,,,0.00,0,WeatherTracker,2013-11-17 23:19:00,
2013-11-17 17:24:00,51.2,36.5,28.50,NNW,337,0.0,0.0,57,0.00,,,0.00,0,WeatherTracker,2013-11-17 23:24:00,
2013-11-17 17:29:00,50.8,36.1,28.51,NNW,337,0.0,0.0,57,0.00,,,0.00,0,WeatherTracker,2013-11-17 23:29:00,
2013-11-17 17:34:00,50.3,36.1,28.51,NNW,337,0.0,0.0,58,0.00,,,0.00,0,WeatherTracker,2013-11-17 23:34:00,
2013-11-17 17:39:00,49.8,36.1,28.51,NNW,337,0.0,0.0,59,0.00,,,0.00,0,WeatherTracker,2013-11-17 23:39:00,
2013-11-17 17:44:00,49.2,35.9,28.54,NNW,337,0.0,0.0,60,0.00,,,0.00,0,WeatherTracker,2013-11-17 23:44:00,
2013-11-17 17:49:00,48.7,35.9,28.54,NNW,337,0.0,0.0,61,0.00,,,0.00,0,WeatherTracker,2013-11-17 23:49:00,
2013-11-17 17:54:00,48.2,35.8,28.54,NNW,337,0.0,0.0,62,0.00,,,0.00,0,WeatherTracker,2013-11-17 23:54:00,
2013-11-17 17:59:00,47.6,35.2,28.55,NNW,337,0.0,0.0,62,0.00,,,0.00,0,WeatherTracker,2013-11-17 23:59:00,
2013-11-17 18:04:00,47.0,35.5,28.55,NNW,337,0.0,0.0,64,0.00,,,0.00,0,WeatherTracker,2013-11-18 00:04:00,
2013-11-17 18:09:00,46.6,35.1,28.55,NNW,337,0.0,0.0,64,0.00,,,0.00,0,WeatherTracker,2013-11-18 00:09:00,
2013-11-17 18:14:00,46.3,35.2,28.56,NNW,337,0.0,0.0,65,0.00,,,0.00,0,WeatherTracker,2013-11-18 00:14:00,
2013-11-17 18:19:00,45.9,35.2,28.56,NNW,337,0.0,0.0,66,0.00,,,0.00,0,WeatherTracker,2013-11-18 00:19:00,
2013-11-17 18:24:00,45.5,34.8,28.56,NNW,337,0.0,0.0,66,0.00,,,0.00,0,WeatherTracker,2013-11-18 00:24:00,
2013-11-17 18:29:00,45.3,35.0,28.58,NNW,337,0.0,0.0,67,0.00,,,0.00,0,WeatherTracker,2013-11-18 00:29:00,
2013-11-17 18:34:00,45.0,35.1,28.58,NNW,337,0.0,0.0,68,0.00,,,0.00,0,WeatherTracker,2013-11-18 00:34:00,
2013-11-17 18:39:00,44.7,34.8,28.58,NNW,337,1.0,0.0,68,0.00,,,0.00,0,WeatherTracker,2013-11-18 00:39:00,
2013-11-17 18:45:00,44.5,34.6,28.59,NNW,337,0.0,0.0,68,0.00,,,0.00,0,WeatherTracker,2013-11-18 00:45:00,
2013-11-17 18:50:00,44.2,34.7,28.59,NNW,337,0.0,0.0,69,0.00,,,0.00,0,WeatherTracker,2013-11-18 00:50:00,
2013-11-17 18:55:00,44.0,34.9,28.59,NW,309,6.0,0.0,70,0.00,,,0.00,0,WeatherTracker,2013-11-18 00:55:00,
2013-11-17 19:00:00,44.0,35.6,28.61,WNW,289,2.0,0.0,72,0.00,,,0.00,0,WeatherTracker,2013-11-18 01:00:00,
2013-11-17 19:05:00,44.3,35.5,28.61,WNW,290,4.0,0.0,71,0.00,,,0.00,0,WeatherTracker,2013-11-18 01:05:00,
2013-11-17 19:10:00,44.8,36.0,28.61,NW,305,3.0,0.0,71,0.00,,,0.00,0,WeatherTracker,2013-11-18 01:10:00,
2013-11-17 19:15:00,45.1,36.3,28.63,West,273,5.0,0.0,71,0.00,,,0.00,0,WeatherTracker,2013-11-18 01:15:00,
2013-11-17 19:20:00,45.4,36.2,28.63,NW,306,4.0,0.0,70,0.00,,,0.00,0,WeatherTracker,2013-11-18 01:20:00,
2013-11-17 19:25:00,45.6,36.0,28.63,NW,313,11.0,0.0,69,0.00,,,0.00,0,WeatherTracker,2013-11-18 01:25:00,
2013-11-17 19:30:00,45.9,36.3,28.64,NW,323,6.0,0.0,69,0.00,,,0.00,0,WeatherTracker,2013-11-18 01:30:00,
2013-11-17 19:35:00,45.9,35.9,28.64,NW,308,3.0,0.0,68,0.00,,,0.00,0,WeatherTracker,2013-11-18 01:35:00,
2013-11-17 19:40:00,45.8,36.2,28.64,NW,306,4.0,0.0,69,0.00,,,0.00,0,WeatherTracker,2013-11-18 01:40:00,
2013-11-17 19:45:00,45.5,35.9,28.65,NW,310,3.0,0.0,69,0.00,,,0.00,0,WeatherTracker,2013-11-18 01:45:00,
2013-11-17 19:50:00,45.1,35.9,28.65,WNW,300,8.0,0.0,70,0.00,,,0.00,0,WeatherTracker,2013-11-18 01:50:00,
2013-11-17 19:55:00,44.9,35.7,28.65,NW,325,11.0,0.0,70,0.00,,,0.00,0,WeatherTracker,2013-11-18 01:55:00,
2013-11-17 20:00:00,44.6,35.8,28.66,NW,311,6.0,0.0,71,0.00,,,0.00,0,WeatherTracker,2013-11-18 02:00:00,
2013-11-17 20:05:00,44.4,35.9,28.66,NW,309,3.0,0.0,72,0.00,,,0.00,0,WeatherTracker,2013-11-18 02:05:00,
2013-11-17 20:10:00,44.2,35.8,28.66,NW,315,5.0,0.0,72,0.00,,,0.00,0,WeatherTracker,2013-11-18 02:10:00,
2013-11-17 20:15:00,43.9,35.8,28.68,NW,306,9.0,0.0,73,0.00,,,0.00,0,WeatherTracker,2013-11-18 02:15:00,
2013-11-17 20:20:00,43.7,35.6,28.68,WNW,295,4.0,0.0,73,0.00,,,0.00,0,WeatherTracker,2013-11-18 02:20:00,
2013-11-17 20:25:00,43.4,35.7,28.68,WNW,292,7.0,0.0,74,0.00,,,0.00,0,WeatherTracker,2013-11-18 02:25:00,
2013-11-17 20:30:00,43.2,35.5,28.69,WNW,286,5.0,0.0,74,0.00,,,0.00,0,WeatherTracker,2013-11-18 02:30:00,
2013-11-17 20:35:00,42.9,35.2,28.69,NW,317,11.0,0.0,74,0.00,,,0.00,0,WeatherTracker,2013-11-18 02:35:00,
2013-11-17 20:41:00,42.7,35.3,28.69,WNW,286,3.0,0.0,75,0.00,,,0.00,0,WeatherTracker,2013-11-18 02:41:00,
2013-11-17 20:46:00,42.5,35.1,28.70,NW,325,5.0,0.0,75,0.00,,,0.00,0,WeatherTracker,2013-11-18 02:46:00,
2013-11-17 20:51:00,42.4,35.4,28.70,NNW,338,7.0,0.0,76,0.00,,,0.00,0,WeatherTracker,2013-11-18 02:51:00,
2013-11-17 20:56:00,42.4,35.4,28.70,NNW,328,4.0,0.0,76,0.00,,,0.00,0,WeatherTracker,2013-11-18 02:56:00,
2013-11-17 21:01:00,42.3,35.3,28.70,NW,325,5.0,0.0,76,0.00,,,0.00,0,WeatherTracker,2013-11-18 03:01:00,
2013-11-17 21:06:00,42.2,35.2,28.70,West,277,9.0,0.0,76,0.00,,,0.00,0,WeatherTracker,2013-11-18 03:06:00,
2013-11-17 21:11:00,42.0,35.0,28.70,NW,322,6.0,0.0,76,0.00,,,0.00,0,WeatherTracker,2013-11-18 03:11:00,
2013-11-17 21:16:00,41.8,35.1,28.70,NW,319,4.0,0.0,77,0.00,,,0.00,0,WeatherTracker,2013-11-18 03:16:00,
2013-11-17 21:21:00,41.6,34.9,28.70,WNW,294,6.0,0.0,77,0.00,,,0.00,0,WeatherTracker,2013-11-18 03:21:00,
2013-11-17 21:26:00,41.4,34.7,28.70,WNW,302,1.0,0.0,77,0.00,,,0.00,0,WeatherTracker,2013-11-18 03:26:00,
2013-11-17 21:31:00,41.2,34.5,28.71,WNW,288,5.0,0.0,77,0.00,,,0.00,0,WeatherTracker,2013-11-18 03:31:00,
2013-11-17 21:36:00,40.9,34.6,28.71,WNW,284,5.0,0.0,78,0.00,,,0.00,0,WeatherTracker,2013-11-18 03:36:00,
2013-11-17 21:41:00,40.6,34.3,28.71,WNW,301,6.0,0.0,78,0.00,,,0.00,0,WeatherTracker,2013-11-18 03:41:00,
2013-11-17 21:46:00,40.4,34.4,28.72,WNW,294,2.0,0.0,79,0.00,,,0.00,0,WeatherTracker,2013-11-18 03:46:00,
2013-11-17 21:51:00,40.1,33.8,28.72,West,276,1.0,0.0,78,0.00,,,0.00,0,WeatherTracker,2013-11-18 03:51:00,
2013-11-17 21:56:00,39.8,33.8,28.72,West,276,2.0,0.0,79,0.00,,,0.00,0,WeatherTracker,2013-11-18 03:56:00,
2013-11-17 22:01:00,39.5,33.5,28.72,WNW,292,4.0,0.0,79,0.00,,,0.00,0,WeatherTracker,2013-11-18 04:01:00,
2013-11-17 22:06:00,39.3,33.7,28.72,West,278,0.0,0.0,80,0.00,,,0.00,0,WeatherTracker,2013-11-18 04:06:00,
2013-11-17 22:11:00,39.0,33.4,28.72,WNW,296,3.0,0.0,80,0.00,,,0.00,0,WeatherTracker,2013-11-18 04:11:00,
2013-11-17 22:16:00,38.7,33.1,28.72,WNW,290,0.0,0.0,80,0.00,,,0.00,0,WeatherTracker,2013-11-18 04:16:00,
2013-11-17 22:21:00,38.4,33.1,28.72,West,267,1.0,0.0,81,0.00,,,0.00,0,WeatherTracker,2013-11-18 04:21:00,
2013-11-17 22:27:00,38.2,32.9,28.72,West,267,0.0,0.0,81,0.00,,,0.00,0,WeatherTracker,2013-11-18 04:27:00,
2013-11-17 22:32:00,37.9,32.6,28.73,West,267,0.0,0.0,81,0.00,,,0.00,0,WeatherTracker,2013-11-18 04:32:00,
2013-11-17 22:37:00,37.6,32.3,28.73,West,267,2.0,0.0,81,0.00,,,0.00,0,WeatherTracker,2013-11-18 04:37:00,
2013-11-17 22:42:00,37.3,32.0,28.73,West,267,0.0,0.0,81,0.00,,,0.00,0,WeatherTracker,2013-11-18 04:42:00,
2013-11-17 22:47:00,37.0,32.0,28.73,West,267,0.0,0.0,82,0.00,,,0.00,0,WeatherTracker,2013-11-18 04:47:00,
2013-11-17 22:52:00,36.8,31.8,28.73,West,267,0.0,0.0,82,0.00,,,0.00,0,WeatherTracker,2013-11-18 04:52:00,
2013-11-17 22:57:00,36.6,31.6,28.73,West,267,0.0,0.0,82,0.00,,,0.00,0,WeatherTracker,2013-11-18 04:57:00,
2013-11-17 23:01:00,36.4,31.4,28.73,West,267,1.0,0.0,82,0.00,,,0.00,0,WeatherTracker,2013-11-18 05:01:00,
2013-11-17 23:02:00,36.3,31.3,28.73,West,267,3.0,0.0,82,0.00,,,0.00,0,WeatherTracker,2013-11-18 05:02:00,
2013-11-17 23:03:00,36.2,31.2,28.73,West,267,2.0,0.0,82,0.00,,,0.00,0,WeatherTracker,2013-11-18 05:03:00,
2013-11-17 23:08:00,36.1,31.4,28.73,West,267,0.0,0.0,83,0.00,,,0.00,0,WeatherTracker,2013-11-18 05:08:00,
2013-11-17 23:13:00,35.8,31.2,28.73,West,267,0.0,0.0,83,0.00,,,0.00,0,WeatherTracker,2013-11-18 05:13:00,
2013-11-17 23:18:00,35.6,31.0,28.74,West,267,0.0,0.0,83,0.00,,,0.00,0,WeatherTracker,2013-11-18 05:18:00,
2013-11-17 23:23:00,35.4,30.8,28.74,West,267,1.0,0.0,83,0.00,,,0.00,0,WeatherTracker,2013-11-18 05:23:00,
2013-11-17 23:28:00,35.2,30.9,28.74,West,267,1.0,0.0,84,0.00,,,0.00,0,WeatherTracker,2013-11-18 05:28:00,
2013-11-17 23:33:00,35.0,30.7,28.74,West,267,0.0,0.0,84,0.00,,,0.00,0,WeatherTracker,2013-11-18 05:33:00,
2013-11-17 23:38:00,34.9,30.6,28.74,West,267,0.0,0.0,84,0.00,,,0.00,0,WeatherTracker,2013-11-18 05:38:00,
2013-11-17 23:43:00,34.7,30.4,28.74,West,267,2.0,0.0,84,0.00,,,0.00,0,WeatherTracker,2013-11-18 05:43:00,
2013-11-17 23:48:00,34.5,30.5,28.74,West,267,0.0,0.0,85,0.00,,,0.00,0,WeatherTracker,2013-11-18 05:48:00,
2013-11-17 23:53:00,34.4,30.4,28.74,West,267,0.0,0.0,85,0.00,,,0.00,0,WeatherTracker,2013-11-18 05:53:00,
2013-11-17 23:58:00,34.4,30.4,28.74,West,267,0.0,0.0,85,0.00,,,0.00,0,WeatherTracker,2013-11-18 05:58:00,